RH
18 18 17 16 15 15 13 11 13 12 12 12 12 12 13 15 16 20 18 19 22 20 20 23 24 24 26 26 25 25 23 22 24 23 21 20 20 21 22 23 23 25 27 31 31 33 35 38 43
20 19 18 18 15 14 14 15 13 11 11 11 13 13 14 16 18 18 18 21 24 23 23 23 24 25 27 28 27 25 23 23 24 22 20 19 20 21 22 23 24 25 28 30 30 33 36 40 46
23 21 20 20 17 15 15 15 15 13 13 13 13 14 15 15 16 21 24 23 23 21 21 23 26 27 29 30 27 25 24 23 23 23 22 21 21 22 23 24 25 25 29 31 32 34 38 40 47
24 23 23 21 18 18 17 18 17 15 14 14 15 15 16 16 16 23 27 22 23 21 21 24 26 28 29 28 27 26 23 23 23 24 24 23 23 24 24 25 26 27 29 34 33 37 38 42 50
24 23 24 23 22 21 21 20 19 17 16 16 18 17 17 18 18 18 25 24 21 21 22 24 26 27 26 27 25 24 23 23 24 25 25 25 25 25 25 26 28 28 29 34 35 37 40 44 51
25 26 25 23 22 23 22 22 21 21 19 18 18 18 18 19 19 21 25 28 24 24 24 25 27 27 27 26 24 22 22 22 23 25 26 27 27 27 27 29 29 29 29 35 36 40 42 47 50
27 28 26 26 24 24 24 24 24 24 24 22 21 20 18 19 20 24 29 32 30 28 26 26 27 29 26 24 22 24 23 23 22 24 27 28 27 28 29 30 30 31 31 37 42 41 43 47 51
28 28 30 28 26 25 25 25 26 26 26 25 24 23 22 21 21 24 32 37 37 35 31 29 29 28 25 24 25 25 23 24 25 25 27 28 28 28 29 31 29 31 31 34 39 42 44 47 49
29 29 29 28 29 26 27 26 27 27 28 28 27 25 24 22 22 25 33 43 44 42 35 32 32 29 29 28 27 28 27 25 25 27 27 28 28 28 29 29 30 30 32 35 38 43 44 48 53
31 30 28 28 27 26 26 27 27 27 26 26 27 26 25 25 24 25 30 46 48 46 39 39 38 39 34 32 31 30 29 27 27 27 27 28 27 28 29 31 31 31 32 36 45 50 50 51 54
32 31 31 29 28 28 27 27 28 27 26 25 26 26 26 27 26 26 31 42 46 49 43 43 42 41 39 38 37 35 30 29 28 29 29 28 28 30 31 31 31 32 33 35 42 49 46 49 54
33 33 31 30 29 28 28 27 27 26 25 24 24 25 26 26 27 27 29 37 50 61 53 51 51 45 46 43 43 39 36 31 30 30 31 31 30 30 29 29 30 31 32 34 40 45 48 52 55
34 33 32 31 30 30 29 28 28 28 26 25 25 26 26 27 28 28 28 32 37 43 54 58 54 51 49 42 50 43 41 36 34 32 30 31 33 31 29 28 31 32 32 34 37 43 46 50 55
39 38 37 36 35 34 32 30 30 28 27 28 28 26 26 26 28 29 30 29 31 37 44 51 52 60 60 58 51 49 47 44 39 37 33 30 32 34 30 29 33 33 32 34 36 39 46 51 58
40 40 39 37 35 34 33 33 32 29 29 28 27 26 26 26 27 28 30 31 30 32 39 40 43 54 54 57 68 57 53 49 46 45 41 37 36 36 34 37 34 33 33 36 39 38 44 50 53
38 37 37 37 36 36 36 34 34 33 31 29 28 27 27 27 27 28 29 29 31 30 31 32 31 32 34 44 54 54 56 53 48 48 50 44 41 38 39 42 37 34 33 37 39 35 41 48 55
41 38 39 37 36 37 37 36 34 32 31 30 29 28 28 27 28 27 27 29 31 31 32 32 32 31 32 35 39 46 52 59 54 53 54 51 46 43 42 44 40 36 34 38 41 35 37 44 48
39 39 40 41 37 36 33 31 30 30 30 29 29 29 29 29 30 29 28 28 29 29 30 31 32 33 34 34 34 35 42 49 59 59 55 60 54 50 50 45 41 40 36 39 43 38 35 41 49
37 38 36 35 33 35 34 33 32 32 31 30 29 28 28 27 29 30 30 31 31 30 29 29 30 31 31 32 32 33 35 40 48 56 55 57 57 58 53 47 46 42 38 41 43 43 37 39 48
38 37 36 34 35 35 33 30 29 27 25 25 25 25 29 27 25 26 28 29 29 28 27 28 27 27 28 29 29 30 33 37 38 50 56 54 54 62 63 50 46 44 42 45 46 45 45 39 45
39 39 38 38 34 34 33 26 23 21 20 25 29 30 29 31 32 31 30 29 29 27 27 27 27 26 26 27 29 34 38 41 42 44 48 52 51 53 70 61 48 47 49 48 49 47 51 43 44
41 37 36 38 41 37 32 31 25 21 22 26 29 33 36 36 37 34 34 36 35 34 32 30 27 26 25 25 28 35 38 40 39 36 38 43 46 49 60 71 60 52 56 53 53 50 54 52 44
40 40 39 39 38 38 34 31 25 26 23 31 36 38 39 39 39 38 37 36 36 36 36 36 34 32 28 27 26 34 38 41 40 41 39 41 44 47 57 69 74 68 61 58 57 52 53 58 45
38 38 37 36 38 43 31 29 23 27 30 37 41 42 41 43 44 43 41 38 39 40 40 40 39 39 38 33 30 30 37 44 46 43 40 39 38 48 53 63 61 81 72 68 59 54 54 61 47
43 42 40 40 47 39 38 39 26 34 42 46 48 47 50 49 47 45 43 43 46 47 47 45 46 45 49 43 41 32 39 47 48 47 47 41 35 41 48 61 58 70 71 69 61 54 54 63 50
41 42 44 51 51 50 50 44 33 50 49 50 52 52 52 53 51 50 50 51 57 63 61 59 64 61 63 59 51 46 44 57 52 52 57 49 40 33 43 60 65 73 72 67 61 54 53 64 48
50 53 50 55 55 50 37 35 44 48 48 50 52 51 53 57 58 57 60 64 70 81 80 73 77 84 80 77 66 56 53 53 53 50 55 56 50 46 50 66 71 79 72 68 64 55 55 60 45
42 32 38 52 47 38 26 34 36 51 52 54 54 56 57 60 62 64 70 78 85 94 94 92 93 90 84 77 71 66 62 62 57 56 53 58 58 54 60 67 75 77 74 70 62 56 59 60 47
26 25 29 34 45 38 29 30 55 60 62 59 57 56 56 66 74 76 79 90 91 98 98 98 95 90 85 80 79 75 75 69 69 68 66 62 63 59 59 72 79 77 76 75 65 59 57 57 52
27 32 34 32 32 44 46 32 52 50 51 51 53 59 60 69 88 86 90 94 95 97 98 98 95 90 89 84 80 81 85 85 75 71 73 72 68 66 69 74 79 78 83 78 68 59 59 54 50